Regional Weather Roundup
Issued by NWS State College, PA

Home | Current Version | Previous Version | Graphics & Text | Print | Product List | Glossary Off
Versions: 1 2 3 4 5 6 7 8 9 10 11 12 13 14 15 16 17 18 19 20 21 22 23 24 25 26 27 28 29 30 31 32 33 34 35 36 37 38 39 40 41 42 43 44 45 46 47 48 49 50

000
ASUS41 KCTP 290303
RWRCTP

REGIONAL WEATHER ROUNDUP
NATIONAL WEATHER SERVICE STATE COLLEGE PA
1100 PM EDT SUN MAY 28 2017

Note: "fair" indicates few or no clouds below 12,000 feet with no
significant weather and/or obstructions to visibility.

* = STATION THAT DOES NOT REPORT PRECIPITATION /E.G. RAIN...SNOW...ETC/
    THUNDER OR FOG.

PAZ002>004-007>009-013>016-020>023-029>032-290400-
WESTERN PENNSYLVANIA

CITY           SKY/WX    TMP DP  RH WIND       PRES   REMARKS
ERIE           CLOUDY    63  60  90 S12       29.73F
MEADVILLE      RAIN      60  59  96 VRB5      29.77F FOG
FRANKLIN*      CLOUDY    61  55  82 SE10      29.81F
NEW CASTLE     CLOUDY    62  61  96 E7        29.79R
BEAVER COUNTY  NOT AVBL
BUTLER*        MOCLDY    63  61  94 NE13      29.79R THUNDER
PITTSBURGH INT MOCLDY    71  63  75 SW9       29.77S
PITTSBURGH     CLOUDY    70  60  70 SW10      29.77S
INDIANA*       FOG       63  63 100 VRB5G14   29.83S VSB 1
LATROBE        CLOUDY    68  64  88 S6        29.80S
WASHINGTON CO* MOCLDY    66  61  82 SW6       29.81S
$$

PAZ004>006-010>012-017>019-024>028-033>037-041-042-045-046-049>053-290400-
CENTRAL PENNSYLVANIA

CITY           SKY/WX    TMP DP  RH WIND       PRES   REMARKS
BRADFORD       LGT RAIN  59  59 100 VRB3      29.84R
DUBOIS         RAIN      61  58  90 W6        29.84R FOG
CLEARFIELD     RAIN      61  61 100 CALM      29.83F FOG
JOHNSTOWN      CLOUDY    60  60 100 S9        29.83F
ALTOONA        LGT RAIN  62  61  96 CALM      29.85S
STATE COLLEGE  LGT RAIN  62  61  98 W3        29.86R
WILLIAMSPORT   CLOUDY    65  62  90 NE9       29.83S
SELINSGROVE    CLOUDY    63  63 100 CALM      29.85S FOG
FT INDIANTOWN  DRIZZLE   61  61 100 E5        29.87S FOG
CAPITAL CITY   LGT RAIN  64  61  90 E9        29.86S FOG
HARRISBURG     LGT RAIN  63  62  97 E7        29.86S FOG
YORK           LGT RAIN  63  63 100 E3        29.86S FOG
$$

PAZ038>040-043-044-047-048-054-055-060>062-067>071-290400-
EASTERN PENNSYLVANIA

CITY           SKY/WX    TMP DP  RH WIND       PRES   REMARKS
SCRANTON       CLOUDY    63  56  78 E3        29.88R
MOUNT POCONO   CLOUDY    53  53 100 SE10      29.91F
ALLENTOWN      LGT RAIN  60  55  83 E8        29.89F
QUAKERTOWN*    CLOUDY    57  57 100 E6        29.90S
READING        HVY RAIN  61  60  97 VRB6      29.87S FOG
LANCASTER      CLOUDY    62  61  96 E5        29.87S
COATESVILLE      N/A     59  59 100 E9G16     29.88F
POTTSTOWN      LGT RAIN  58  57  97 VRB5      29.90S
BLUE BELL      CLOUDY    55  55 100 E6        29.90S
DOYLESTOWN     LGT RAIN  58  57  97 CALM      29.89S
WILLOW GROVE   NOT AVBL
NORTH PHILA    LGT RAIN  60  57  89 E7        29.90F
PHILADELPHIA   LGT RAIN  61  57  87 E12       29.87F
$$



USA.gov is the U.S. government's official web portal to all federal, state and local government web resources and services.